Location: Hylvaty SDH
(49.9612°N, 16.4057°E)
Time: 01:38:59
(UTC+01:00)

Transit 4A - Pass Details

Date: 15 August 2020
Orbit: 864 x 981 km, 66.8° (Epoch: 15 January)

Event Time Altitude Azimuth Distance (km) Brightness Sun altitude
Rises 08:14:43 0° 181° (S) 3,475 11.0 22.8°
Reaches altitude 10° 08:17:25 10° 171° (S) 2,556 10.5 23.2°
Maximum altitude 08:22:33 31° 111° (ESE) 1,531 11.1 24.0°
Drops below altitude 10° 08:27:51 10° 51° (NE) 2,642 11.0 24.8°
Sets 08:30:40 0° 42° (NE) 3,610 11.4 25.3°
